Content
SEND FEEDBACK

Daily
Averages
Monthly
Summary
United States of America

OVALO, TEXAS


Home > North America > United States > Texas
Elevation: 1990 feet     Latitude: 32 07N     Longitude: 099 59W

WEATHER
 
SELECT A DAY
Number of Records: 103,843;   Date Range: 1/1/95 - 10/29/14
 
SHARE

PRINT THIS DATA

[ ← Previous Day ]
WEATHER ALMANAC - JANUARY 31, 2013
[ Next Day → ]
[ °C ]   °F
Weather ElementAverageHighLow
Temperature48.7 °F64.9 °F (2:52 pm)32 °F (1:52 am)
Dewpoint16.6 °F24.1 °F (10:52 pm)10.9 °F (5:52 am)
Humidity30.1 %51 % (10:52 pm)15 % (4:52 pm)
Barometer30.15 in30.24 in (11:52 pm)30.09 in (2:52 pm)
Wind Speed9.6 mph19.6 mph (1:52 pm)
Wind Gust26.5 mph (11:52 am)
Weather ElementAverage
Visibility10 mi
Wind DirectionSSW (195.2 °)

Weather ElementTotal
Precipitation---
Heating Degree Days16.6 (Base 65)
Averaged from 23 records on January 31, 2013
WEATHER CONDITIONS BREAKOUT
WIND DIRECTION BREAKOUT
WEATHER BY HOUR - JANUARY 31, 2013
[ °C ]   °F
Local TimeTemperatureDewpointHumidityBarometerVisibilityWind DirectionWind SpeedGust SpeedPrecipitationEventsConditions
1:52 AM32.0 °F12.9 °F45 %30.13 in10.0 miSouth (180°)8.1 mphClear
2:52 AM35.1 °F12.0 °F39 %30.13 in10.0 miSSW (200°)6.9 mphClear
3:52 AM35.1 °F12.0 °F39 %30.13 in10.0 miSouth (190°)5.8 mphClear
4:52 AM37.0 °F12.0 °F36 %30.10 in10.0 miSSW (200°)9.2 mphClear
5:52 AM37.0 °F10.9 °F34 %30.10 in10.0 miSSW (200°)8.1 mphClear
6:52 AM36.0 °F12.0 °F37 %30.12 in10.0 miSouth (190°)8.1 mphClear
7:52 AM37.0 °F12.0 °F36 %30.14 in10.0 miSSW (200°)6.9 mphClear
8:52 AM42.1 °F12.9 °F31 %30.16 in10.0 miSSW (200°)13.8 mph23.0 mphClear
9:52 AM46.9 °F15.1 °F28 %30.18 in10.0 miSSW (210°)16.1 mph25.3 mphClear
10:52 AM55.9 °F15.1 °F20 %30.18 in10.0 miWSW (240°)18.4 mph24.2 mphClear
11:52 AM60.1 °F18.0 °F20 %30.16 in10.0 miWSW (250°)16.1 mph26.5 mphClear
12:52 PM63.0 °F19.9 °F19 %30.14 in10.0 miWSW (250°)17.3 mph24.2 mphClear
1:52 PM64.0 °F19.9 °F18 %30.10 in10.0 miWSW (250°)19.6 mph24.2 mphClear
2:52 PM64.9 °F18.0 °F16 %30.09 in10.0 miWSW (250°)12.7 mph19.6 mphClear
3:52 PM64.9 °F18.0 °F16 %30.09 in10.0 miWSW (240°)12.7 mphClear
4:52 PM64.9 °F16.0 °F15 %30.12 in10.0 miWest (280°)9.2 mphClear
5:52 PM60.1 °F17.1 °F19 %30.14 in10.0 miWest (260°)3.5 mphClear
6:52 PM57.0 °F17.1 °F21 %30.16 in10.0 miCalmClear
7:52 PM48.0 °F19.9 °F33 %30.20 in10.0 miSE (140°)5.8 mphClear
8:52 PM45.0 °F21.0 °F39 %30.22 in10.0 miSSE (160°)5.8 mphClear
9:52 PM44.1 °F21.9 °F42 %30.22 in10.0 miSSE (160°)4.6 mphClear
10:52 PM41.0 °F24.1 °F51 %30.22 in10.0 miSouth (170°)3.5 mphClear
11:52 PM48.0 °F24.1 °F39 %30.24 in10.0 miENE (70°)8.1 mphClear
Hourly data recorded from KABI, located miles away from Ovalo, Texas







STORIES FROM OUR PARTNERS